Location: Powder Track
(41.8531°N, 72.3584°W)
Time: 09:30:30
(UTC+00:00)

Transit 4A - Pass Details

Date: 07 August 2021
Orbit: 871 x 974 km, 66.8° (Epoch: 20 September)

Event Time Altitude Azimuth Distance (km) Brightness Sun altitude
Rises 13:36:59 0° 315° (NW) 3,490 10.5 40.6°
Reaches altitude 10° 13:40:05 10° 299° (WNW) 2,560 9.9 41.1°
Maximum altitude 13:44:15 20° 254° (WSW) 1,949 9.4 41.9°
Drops below altitude 10° 13:48:28 10° 209° (SSW) 2,594 10.3 42.6°
Sets 13:51:39 0° 194° (SSW) 3,552 11.0 43.2°
